When you browse on this site, cookies collect data to enhance your experience and personalize the content and advertising you see.
Visit our Privacy Policy to learn more. By continuing to use the site, you agree to this use of cookies and data.
  • In Austria
  • List of Countries
  • For 7 days
  • Water Temperature
  • Satellite Maps
  • Weather Map
  • News
  • Weather Widgets
  • user-avatar
    Login

    Hourly Weather Chyzhychi

    Today, 18 January, Friday

    Time Temperature Precipitation Wind Pressure Humidity
    00:00 0°C° 0 mm 4 mps 727 mmHg 83%
    01:00 0°C° 0 mm 4 mps 727 mmHg 84%
    02:00 +3°C° 0 mm 1 mps 726 mmHg 88%
    03:00 +3°C° 0.4 mm 1 mps 726 mmHg 89%
    04:00 +2°C° 0.4 mm 2 mps 726 mmHg 91%
    05:00 +2°C° 0.4 mm 2 mps 726 mmHg 93%
    06:00 +2°C° 0.6 mm 2 mps 726 mmHg 93%
    07:00 +2°C° 0.6 mm 2 mps 726 mmHg 93%
    08:00 +1°C° 0 mm 3 mps 726 mmHg 94%
    09:00 +1°C° 0.6 mm 3 mps 727 mmHg 95%
    10:00 +1°C° 0.6 mm 3 mps 727 mmHg 96%
    11:00 +1°C° 0.6 mm 3 mps 728 mmHg 97%
    12:00 +1°C° 0.2 mm 3 mps 728 mmHg 96%
    13:00 -1°C° 0.2 mm 4 mps 728 mmHg 96%
    14:00 -1°C° 0.2 mm 4 mps 729 mmHg 95%
    15:00 -1°C° 0.1 mm 4 mps 729 mmHg 92%
    16:00 -2°C° 0.1 mm 4 mps 730 mmHg 89%
    17:00 -2°C° 0.1 mm 4 mps 730 mmHg 87%
    18:00 -2°C° 0.1 mm 4 mps 731 mmHg 88%
    19:00 -3°C° 0.1 mm 4 mps 731 mmHg 89%
    20:00 -3°C° 0.1 mm 4 mps 732 mmHg 91%
    21:00 -3°C° 0.1 mm 4 mps 733 mmHg 91%
    22:00 -4°C° 0.1 mm 4 mps 733 mmHg 91%
    23:00 -4°C° 0.1 mm 4 mps 734 mmHg 91%

    Tomorrow, 19 January, Saturday

    Time Temperature Precipitation Wind Pressure Humidity
    00:00 -5°C° 0 mm 3 mps 735 mmHg 92%
    01:00 -6°C° 0 mm 3 mps 735 mmHg 92%
    02:00 -7°C° 0 mm 3 mps 735 mmHg 92%
    03:00 -7°C° 0 mm 3 mps 736 mmHg 92%
    04:00 -6°C° 0 mm 2 mps 736 mmHg 93%
    05:00 -6°C° 0 mm 2 mps 736 mmHg 93%
    06:00 -6°C° 0 mm 2 mps 737 mmHg 93%
    07:00 -7°C° 0 mm 2 mps 737 mmHg 93%
    08:00 -7°C° 0 mm 2 mps 737 mmHg 94%
    09:00 -6°C° 0 mm 2 mps 738 mmHg 92%
    10:00 -5°C° 0 mm 2 mps 738 mmHg 90%
    11:00 -4°C° 0 mm 2 mps 738 mmHg 88%
    12:00 -2°C° 0 mm 1 mps 738 mmHg 85%
    13:00 -2°C° 0 mm 1 mps 738 mmHg 83%
    14:00 -1°C° 0 mm 1 mps 737 mmHg 80%
    15:00 -2°C° 0 mm 1 mps 737 mmHg 82%
    16:00 -3°C° 0 mm 1 mps 737 mmHg 85%
    17:00 -4°C° 0 mm 1 mps 737 mmHg 87%
    18:00 -4°C° 0 mm 1 mps 737 mmHg 88%
    19:00 -6°C° 0 mm 2 mps 737 mmHg 89%
    20:00 -7°C° 0 mm 2 mps 737 mmHg 90%
    21:00 -7°C° 0 mm 2 mps 737 mmHg 90%
    22:00 -7°C° 0 mm 2 mps 737 mmHg 90%
    23:00 -8°C° 0 mm 2 mps 737 mmHg 89%

    Day after tomorrow, 20 January, Sunday

    Time Temperature Precipitation Wind Pressure Humidity
    00:00 -8°C° 0 mm 2 mps 737 mmHg 91%
    01:00 -9°C° 0 mm 3 mps 736 mmHg 92%
    02:00 -9°C° 0 mm 3 mps 736 mmHg 93%
    03:00 -8°C° 0 mm 3 mps 736 mmHg 94%
    04:00 -8°C° 0 mm 3 mps 735 mmHg 94%
    05:00 -7°C° 0 mm 3 mps 735 mmHg 94%
    06:00 -7°C° 0 mm 3 mps 734 mmHg 94%
    07:00 -8°C° 0 mm 3 mps 734 mmHg 93%
    08:00 -8°C° 0 mm 3 mps 734 mmHg 93%
    09:00 -6°C° 0 mm 2 mps 734 mmHg 92%
    10:00 -6°C° 0 mm 2 mps 734 mmHg 91%
    11:00 -5°C° 0 mm 2 mps 734 mmHg 90%
    12:00 -5°C° 0 mm 2 mps 733 mmHg 89%
    13:00 -2°C° 0 mm 1 mps 733 mmHg 88%
    14:00 -2°C° 0 mm 1 mps 732 mmHg 87%
    15:00 -2°C° 0.1 mm 1 mps 732 mmHg 90%
    16:00 -2°C° 0.1 mm 1 mps 732 mmHg 92%
    17:00 -4°C° 0.1 mm 0 mps 732 mmHg 94%
    18:00 -3°C° 0.4 mm 1 mps 732 mmHg 95%
    19:00 -3°C° 0.4 mm 1 mps 733 mmHg 96%
    20:00 -3°C° 0.4 mm 1 mps 733 mmHg 97%
    21:00 -3°C° 0.3 mm 1 mps 733 mmHg 96%
    22:00 -5°C° 0.3 mm 2 mps 733 mmHg 96%
    23:00 -5°C° 0.3 mm 2 mps 733 mmHg 96%

    21 January, Monday

    Time Temperature Precipitation Wind Pressure Humidity
    00:00 -5°C° 0 mm 2 mps 734 mmHg 95%
    01:00 -5°C° 0 mm 2 mps 734 mmHg 95%
    02:00 -5°C° 0 mm 2 mps 734 mmHg 94%
    03:00 -6°C° 0 mm 2 mps 734 mmHg 94%
    04:00 -6°C° 0 mm 2 mps 735 mmHg 93%
    05:00 -7°C° 0 mm 2 mps 735 mmHg 93%
    06:00 -7°C° 0 mm 2 mps 735 mmHg 93%
    07:00 -8°C° 0 mm 2 mps 736 mmHg 93%
    08:00 -8°C° 0 mm 2 mps 736 mmHg 93%
    09:00 -7°C° 0 mm 2 mps 737 mmHg 93%
    10:00 -6°C° 0 mm 2 mps 737 mmHg 93%
    11:00 -5°C° 0 mm 2 mps 738 mmHg 93%
    12:00 -5°C° 0 mm 2 mps 738 mmHg 90%
    13:00 -4°C° 0 mm 2 mps 738 mmHg 87%
    14:00 -4°C° 0 mm 2 mps 738 mmHg 85%
    15:00 -4°C° 0 mm 2 mps 738 mmHg 85%
    16:00 -3°C° 0 mm 1 mps 738 mmHg 85%
    17:00 -4°C° 0 mm 1 mps 738 mmHg 86%
    18:00 -5°C° 0 mm 0 mps 739 mmHg 86%
    19:00 -6°C° 0 mm 0 mps 739 mmHg 86%
    20:00 -7°C° 0 mm 0 mps 739 mmHg 87%
    21:00 -7°C° 0 mm 0 mps 739 mmHg 87%
    22:00 -7°C° 0 mm 1 mps 739 mmHg 88%
    23:00 -7°C° 0 mm 1 mps 739 mmHg 88%

    22 January, Tuesday

    Time Temperature Precipitation Wind Pressure Humidity
    00:00 -8°C° 0 mm 1 mps 739 mmHg 89%
    01:00 -9°C° 0 mm 2 mps 738 mmHg 90%
    02:00 -9°C° 0 mm 2 mps 738 mmHg 91%
    03:00 -10°C° 0 mm 2 mps 738 mmHg 92%
    04:00 -10°C° 0 mm 2 mps 737 mmHg 93%
    05:00 -10°C° 0 mm 2 mps 737 mmHg 93%
    06:00 -10°C° 0 mm 2 mps 737 mmHg 93%
    07:00 -12°C° 0 mm 2 mps 736 mmHg 93%
    08:00 -12°C° 0 mm 2 mps 736 mmHg 92%
    09:00 -10°C° 0 mm 2 mps 736 mmHg 90%
    10:00 -9°C° 0 mm 2 mps 736 mmHg 88%
    11:00 -8°C° 0 mm 2 mps 735 mmHg 87%
    12:00 -7°C° 0 mm 2 mps 735 mmHg 86%
    13:00 -6°C° 0 mm 2 mps 734 mmHg 86%
    14:00 -5°C° 0 mm 2 mps 733 mmHg 86%
    15:00 -6°C° 0 mm 2 mps 733 mmHg 87%
    16:00 -7°C° 0 mm 2 mps 732 mmHg 89%
    17:00 -9°C° 0 mm 3 mps 732 mmHg 91%
    18:00 -9°C° 0 mm 3 mps 731 mmHg 92%
    19:00 -10°C° 0 mm 3 mps 731 mmHg 92%
    20:00 -10°C° 0 mm 3 mps 731 mmHg 93%
    21:00 -10°C° 0 mm 3 mps 730 mmHg 94%
    22:00 -11°C° 0 mm 4 mps 729 mmHg 95%
    23:00 -11°C° 0 mm 4 mps 729 mmHg 96%

    23 January, Wednesday

    Time Temperature Precipitation Wind Pressure Humidity
    00:00 -11°C° 0 mm 4 mps 728 mmHg 96%
    01:00 -11°C° 0 mm 4 mps 728 mmHg 96%
    02:00 -12°C° 0 mm 5 mps 727 mmHg 96%
    03:00 -12°C° 0 mm 5 mps 726 mmHg 95%
    04:00 -12°C° 0 mm 5 mps 726 mmHg 95%
    05:00 -12°C° 0 mm 5 mps 725 mmHg 95%
    06:00 -11°C° 0 mm 5 mps 724 mmHg 94%
    07:00 -11°C° 0 mm 6 mps 724 mmHg 94%
    08:00 -11°C° 0 mm 6 mps 723 mmHg 93%
    09:00 -10°C° 0 mm 6 mps 723 mmHg 92%
    10:00 -9°C° 0 mm 6 mps 722 mmHg 91%
    11:00 -6°C° 0 mm 6 mps 722 mmHg 90%
    12:00 -5°C° 0 mm 6 mps 721 mmHg 89%
    13:00 -4°C° 0 mm 7 mps 721 mmHg 89%
    14:00 -3°C° 0 mm 7 mps 720 mmHg 88%
    15:00 -3°C° 0 mm 7 mps 719 mmHg 89%
    16:00 -3°C° 0 mm 7 mps 719 mmHg 90%
    17:00 -3°C° 0 mm 7 mps 718 mmHg 90%
    18:00 -3°C° 0 mm 7 mps 718 mmHg 90%
    19:00 -2°C° 0 mm 8 mps 718 mmHg 90%
    20:00 -2°C° 0 mm 8 mps 718 mmHg 89%
    21:00 -3°C° 0 mm 9 mps 718 mmHg 88%
    22:00 -3°C° 0 mm 10 mps 718 mmHg 87%
    23:00 -3°C° 0 mm 10 mps 718 mmHg 86%
    Show more